Location: Fort Worth, Tx
(32.7431°N, 97.3695°W)
Time: 08:48:26
(UTC-04:00)

Explorer 11/Cluster Stage 4 - Pass Details

Date: 05 February 2023
Orbit: 466 x 1241 km, 28.8° (Epoch: 02 April)

Event Time Altitude Azimuth Distance (km) Brightness Sun altitude
Exits shadow 06:12:04 45° 220° (SW) 1,552 7.7 -27.5°
Maximum altitude 06:14:12 59° 169° (S) 1,367 7.7 -27.1°
Drops below altitude 10° 06:22:13 10° 92° (E) 3,203 10.7 -25.4°
Sets 06:25:11 0° 89° (E) 4,157 11.7 -24.8°
